SCP
0 0 0 0 0 0 0 0 0 0 0 0 0 0 0 0 0 0 0 0 0 0 0 0 0 0 0 0 0 0 0 0
0 0 0 0 0 0 0 0 0 0 0 0 0 0 0 0 0 0 0 0 0 0 0 0 0 0 0 0 0 0 0 0
0 0 0 0 0 0 0 0 0 0 0 0 0 0 0 0 0 0 0 0 0 0 0 0 0 0 0 0 0 0 0 0
0 0 0 0 0 0 0 0 0 0 0 0 0 0 0 0 0 0 0 0 0 0 0 0 0 0 0 0 0 0 0 0
0 0 0 0 0 0 0 0 0 0 0 0 0 0 0 0 0 0 0 0 0 0 0 0 0 0 0 0 0 0 0 0
0 0 0 0 0 0 0 0 0 0 0 0 0 0 0 0 0 0 0 0 0 0 0 0 0 0 0 0 0 0 0 0
0 0 0 0 0 0 0 0 0 0 0 0 0 0 0 0 0 0 0 0 0 0 0 0 0 0 0 0 0 0 0 0
0 0 0 0 0 0 0 0 0 0 0 0 0 0 0 0 0 0 0 0 0 0 0 0 0 0 0 0 0 0 0 0
0 0 0 0 0 0 0 0 0 0 0 0 0 0 0 0 0 0 0 0 0 0 0 0 0 0 0 0 0 0 0 0
0 0 0 0 0 0 0 0 0 0 0 0 0 0 0 0 0 0 0 0 0 0 0 0 0 0 0 0 0 0 0 0
0 0 0 0 0 0 0 0 0 0 0 0 0 0 0 0 0 0 0 0 0 0 0 0 0 0 0 0 0 0 0 0
0 0 0 0 0 0 0 0 0 0 0 0 0 0 0 0 0 0 0 0 0 0 0 0 0 0 0 0 0 0 0 0
0 0 0 0 0 0 0 0 0 0 0 0 0 0 0 0 0 0 0 0 0 0 0 0 0 0 0 0 0 0 0 0
0 0 0 0 0 0 0 0 0 0 0 0 0 0 0 0 0 0 0 0 0 0 0 0 0 0 0 -0 0 0 0 0
0 0 0 0 0 0 0 0 0 0 0 0 0 0 0 0 0 0 0 0 0 0 0 0 0 0 0 0 0 0 0 0
0 0 0 0 0 0 0 0 0 0 0 0 0 0 0 0 0 0 0 0 0 0 0 0 0 0 0 0 0 0 0 0
0 0 0 0 0 0 0 0 0 0 0 0 0 0 0 0 0 0 0 0 0 0 0 0 0 0 0 0 0 0 0 0
0 0 0 0 0 0 0 0 0 0 0 0 0 0 0 0 0 0 0 0 0 0 0 0 0 0 0 0 0 0 0 0
0 0 0 0 0 0 0 0 0 0 0 0 0 0 0 0 0 0 0 0 0 0 0 0 0 0 0 0 0 0 0 0
0 0 0 0 0 0 0 0 0 0 0 0 0 0 0 0 0 0 0 0 0 0 0 0 0 0 0 0 0 0 0 0
Wind_Speed_500mb
41 33 21 11 7 6 4 10 13 12 2 14 18 25 31 26 17 14 21 27 33 38 42 46 49 51 53 53 53 53 51 54
32 22 11 10 11 18 12 8 6 2 5 7 9 6 7 12 18 23 29 34 38 42 44 45 46 47 47 48 49 49 49 49
34 30 30 29 23 18 14 11 11 11 8 4 2 5 10 17 22 26 31 34 36 38 38 38 39 40 43 45 49 53 55 56
34 34 30 25 22 20 17 13 9 7 3 1 5 10 15 22 27 30 32 33 34 35 36 39 41 43 47 53 56 57 58 58
38 31 27 23 20 16 13 11 8 4 1 6 12 19 25 28 28 29 30 31 31 31 34 39 45 50 54 56 57 59 60 60
41 35 29 24 19 16 12 10 6 2 5 11 18 22 24 24 25 26 26 27 29 33 38 42 44 48 54 58 61 63 64 62
44 37 29 23 19 18 16 12 5 5 12 18 21 22 24 24 24 24 25 27 31 34 37 39 43 48 54 60 65 67 68 71
43 36 30 24 23 18 11 5 3 11 16 18 19 21 22 22 21 22 25 28 28 31 35 41 47 53 58 64 71 73 75 81
43 34 28 25 19 14 9 8 11 15 16 18 19 22 22 21 21 23 25 27 30 34 38 44 50 58 66 72 75 80 81 80
35 29 26 22 18 14 14 13 14 16 17 19 21 20 19 20 23 25 25 26 29 34 41 47 55 63 69 76 82 86 79 79
34 29 26 20 19 17 14 13 15 18 21 21 21 20 20 22 24 23 22 24 29 37 46 54 60 67 74 80 81 73 77 85
32 28 24 22 18 15 12 14 18 21 22 21 20 21 23 24 21 18 21 27 35 44 52 59 66 70 74 74 64 67 81 84
32 28 23 19 14 12 14 17 20 21 21 23 23 23 23 21 19 20 26 35 43 50 55 60 65 68 71 69 55 63 67 73
29 25 20 15 14 15 18 20 21 23 24 24 24 22 19 18 19 25 33 41 49 55 60 63 66 68 69 67 61 60 63 70
28 24 19 18 18 19 21 23 26 25 23 23 22 22 21 21 23 30 38 45 51 56 61 63 65 66 66 67 65 66 73 70
25 21 19 19 20 21 24 26 25 25 25 24 24 24 23 23 27 34 40 46 50 54 56 61 67 66 58 60 61 67 68 80
23 21 20 20 22 25 26 28 29 27 25 26 27 26 24 26 31 35 38 43 47 51 55 61 65 68 67 60 58 64 78 83
21 20 22 24 26 28 30 30 29 29 30 30 29 27 28 32 37 40 39 46 47 52 59 62 69 69 70 66 73 78 80 78
23 23 25 27 29 31 33 32 31 31 33 32 31 31 34 37 41 45 50 53 53 52 62 67 70 70 69 71 78 82 79 77
25 24 27 31 32 33 33 34 34 34 34 34 34 35 37 41 44 48 52 58 63 67 66 69 72 72 70 70 73 79 81 80
Wind_Direction_500mb
135 128 114 89 72 73 278 270 265 250 238 290 305 295 292 291 297 317 326 325 326 324 323 323 322 322 323 324 324 325 325 323
132 123 143 166 174 189 181 175 184 214 265 256 229 242 310 324 332 331 329 324 321 320 320 320 321 323 323 325 326 328 330 329
137 142 156 166 168 171 174 181 184 186 169 167 275 320 330 331 328 325 321 321 322 324 326 327 329 332 333 338 341 343 343 342
163 166 169 171 168 167 170 170 163 158 163 313 326 334 330 329 328 328 329 329 335 339 340 342 344 346 348 351 351 350 349 348
166 163 162 169 170 171 175 173 170 161 322 330 333 335 332 328 328 330 336 340 344 348 351 355 357 356 355 354 353 351 349 346
169 172 176 177 177 180 177 177 175 236 307 321 327 325 327 331 338 342 346 351 357 360 359 359 359 358 356 353 352 348 344 342
175 179 178 181 190 194 193 187 174 294 319 324 327 333 338 341 345 348 352 356 360 3 3 3 4 359 354 350 346 343 341 336
179 181 184 188 196 189 183 182 295 300 310 320 333 335 336 340 346 352 357 360 1 9 9 4 359 353 348 344 341 339 336 333
183 184 187 190 188 190 200 233 267 293 312 325 330 331 335 341 347 355 1 5 9 10 3 358 351 346 344 341 339 336 335 333
185 189 192 191 191 199 229 262 289 303 314 324 329 331 336 343 352 358 2 5 5 359 354 348 345 345 342 339 339 337 335 332
192 195 195 193 204 225 250 279 301 311 321 326 328 327 333 342 348 351 355 358 354 349 347 346 345 343 341 341 340 336 330 332
194 197 200 207 220 239 272 296 303 311 314 319 327 330 333 336 333 339 347 345 345 347 345 344 342 341 341 341 339 333 330 332
200 203 208 218 237 268 285 292 295 302 313 315 316 315 314 319 327 336 341 341 339 340 340 341 340 340 340 340 336 333 329 324
202 207 212 229 252 266 275 283 298 306 305 307 306 307 312 315 324 332 333 336 338 338 337 338 340 339 338 339 332 332 323 322
205 208 220 238 257 274 287 298 301 300 297 297 300 304 308 313 319 327 334 336 335 334 334 335 337 336 337 333 333 329 324 320
207 217 235 256 273 290 293 292 292 292 293 294 297 300 301 305 319 329 331 330 332 333 333 331 333 332 326 325 327 323 321 325
215 233 252 274 285 286 290 291 287 285 289 293 293 291 294 307 316 317 319 327 331 331 331 330 328 329 328 326 322 325 328 328
231 251 270 280 285 286 285 283 284 287 289 290 293 300 303 301 301 305 313 323 327 329 328 327 326 328 328 327 325 329 328 327
246 262 273 279 283 286 285 284 285 286 290 294 295 289 288 297 307 313 318 320 321 323 325 325 325 326 328 327 325 326 329 328
250 264 279 285 285 284 282 280 283 287 289 285 281 284 294 302 308 314 317 319 322 325 327 326 325 326 329 328 326 325 324 325
Wind_Speed_850mb
41 33 21 11 7 6 4 10 13 12 2 14 18 25 31 26 17 14 21 27 33 38 42 46 49 51 53 53 53 53 51 54
32 22 11 10 11 18 12 8 6 2 5 7 9 6 7 12 18 23 29 34 38 42 44 45 46 47 47 48 49 49 49 49
34 30 30 29 23 18 14 11 11 11 8 4 2 5 10 17 22 26 31 34 36 38 38 38 39 40 43 45 49 53 55 56
34 34 30 25 22 20 17 13 9 7 3 1 5 10 15 22 27 30 32 33 34 35 36 39 41 43 47 53 56 57 58 58
38 31 27 23 20 16 13 11 8 4 1 6 12 19 25 28 28 29 30 31 31 31 34 39 45 50 54 56 57 59 60 60
41 35 29 24 19 16 12 10 6 2 5 11 18 22 24 24 25 26 26 27 29 33 38 42 44 48 54 58 61 63 64 62
44 37 29 23 19 18 16 12 5 5 12 18 21 22 24 24 24 24 25 27 31 34 37 39 43 48 54 60 65 67 68 71
43 36 30 24 23 18 11 5 3 11 16 18 19 21 22 22 21 22 25 28 28 31 35 41 47 53 58 64 71 73 75 81
43 34 28 25 19 14 9 8 11 15 16 18 19 22 22 21 21 23 25 27 30 34 38 44 50 58 66 72 75 80 81 80
35 29 26 22 18 14 14 13 14 16 17 19 21 20 19 20 23 25 25 26 29 34 41 47 55 63 69 76 82 86 79 79
34 29 26 20 19 17 14 13 15 18 21 21 21 20 20 22 24 23 22 24 29 37 46 54 60 67 74 80 81 73 77 85
32 28 24 22 18 15 12 14 18 21 22 21 20 21 23 24 21 18 21 27 35 44 52 59 66 70 74 74 64 67 81 84
32 28 23 19 14 12 14 17 20 21 21 23 23 23 23 21 19 20 26 35 43 50 55 60 65 68 71 69 55 63 67 73
29 25 20 15 14 15 18 20 21 23 24 24 24 22 19 18 19 25 33 41 49 55 60 63 66 68 69 67 61 60 63 70
28 24 19 18 18 19 21 23 26 25 23 23 22 22 21 21 23 30 38 45 51 56 61 63 65 66 66 67 65 66 73 70
25 21 19 19 20 21 24 26 25 25 25 24 24 24 23 23 27 34 40 46 50 54 56 61 67 66 58 60 61 67 68 80
23 21 20 20 22 25 26 28 29 27 25 26 27 26 24 26 31 35 38 43 47 51 55 61 65 68 67 60 58 64 78 83
21 20 22 24 26 28 30 30 29 29 30 30 29 27 28 32 37 40 39 46 47 52 59 62 69 69 70 66 73 78 80 78
23 23 25 27 29 31 33 32 31 31 33 32 31 31 34 37 41 45 50 53 53 52 62 67 70 70 69 71 78 82 79 77
25 24 27 31 32 33 33 34 34 34 34 34 34 35 37 41 44 48 52 58 63 67 66 69 72 72 70 70 73 79 81 80
Wind_Direction_850mb
135 128 114 89 72 73 278 270 265 250 238 290 305 295 292 291 297 317 326 325 326 324 323 323 322 322 323 324 324 325 325 323
132 123 143 166 174 189 181 175 184 214 265 256 229 242 310 324 332 331 329 324 321 320 320 320 321 323 323 325 326 328 330 329
137 142 156 166 168 171 174 181 184 186 169 167 275 320 330 331 328 325 321 321 322 324 326 327 329 332 333 338 341 343 343 342
163 166 169 171 168 167 170 170 163 158 163 313 326 334 330 329 328 328 329 329 335 339 340 342 344 346 348 351 351 350 349 348
166 163 162 169 170 171 175 173 170 161 322 330 333 335 332 328 328 330 336 340 344 348 351 355 357 356 355 354 353 351 349 346
169 172 176 177 177 180 177 177 175 236 307 321 327 325 327 331 338 342 346 351 357 360 359 359 359 358 356 353 352 348 344 342
175 179 178 181 190 194 193 187 174 294 319 324 327 333 338 341 345 348 352 356 360 3 3 3 4 359 354 350 346 343 341 336
179 181 184 188 196 189 183 182 295 300 310 320 333 335 336 340 346 352 357 360 1 9 9 4 359 353 348 344 341 339 336 333
183 184 187 190 188 190 200 233 267 293 312 325 330 331 335 341 347 355 1 5 9 10 3 358 351 346 344 341 339 336 335 333
185 189 192 191 191 199 229 262 289 303 314 324 329 331 336 343 352 358 2 5 5 359 354 348 345 345 342 339 339 337 335 332
192 195 195 193 204 225 250 279 301 311 321 326 328 327 333 342 348 351 355 358 354 349 347 346 345 343 341 341 340 336 330 332
194 197 200 207 220 239 272 296 303 311 314 319 327 330 333 336 333 339 347 345 345 347 345 344 342 341 341 341 339 333 330 332
200 203 208 218 237 268 285 292 295 302 313 315 316 315 314 319 327 336 341 341 339 340 340 341 340 340 340 340 336 333 329 324
202 207 212 229 252 266 275 283 298 306 305 307 306 307 312 315 324 332 333 336 338 338 337 338 340 339 338 339 332 332 323 322
205 208 220 238 257 274 287 298 301 300 297 297 300 304 308 313 319 327 334 336 335 334 334 335 337 336 337 333 333 329 324 320
207 217 235 256 273 290 293 292 292 292 293 294 297 300 301 305 319 329 331 330 332 333 333 331 333 332 326 325 327 323 321 325
215 233 252 274 285 286 290 291 287 285 289 293 293 291 294 307 316 317 319 327 331 331 331 330 328 329 328 326 322 325 328 328
231 251 270 280 285 286 285 283 284 287 289 290 293 300 303 301 301 305 313 323 327 329 328 327 326 328 328 327 325 329 328 327
246 262 273 279 283 286 285 284 285 286 290 294 295 289 288 297 307 313 318 320 321 323 325 325 325 326 328 327 325 326 329 328
250 264 279 285 285 284 282 280 283 287 289 285 281 284 294 302 308 314 317 319 322 325 327 326 325 326 329 328 326 325 324 325